Location: ActonStarParty
(42.4766°N, 71.4538°W)
Time: 12:07:40
(UTC-04:00)

Cosmos 1300 - Visible Passes

Search period start: 29 March 2015 00:00
Search period end: 08 April 2015 00:00
Orbit: 522 x 526 km, 82.5° (Epoch: 28 March)

Date Brightness Start Highest point End Pass type
(mag) Time Alt. Az. Time Alt. Az. Time Alt. Az.
04 Apr 5.4 21:43:43 11° NNE 21:43:43 11° NNE 21:43:54 10° NNE visible
05 Apr 5.2 21:30:51 13° NNE 21:30:51 13° NNE 21:31:24 10° NNE visible
05 Apr 6.0 23:05:59 12° NW 23:05:59 12° NW 23:06:23 10° NNW visible
06 Apr 4.9 21:17:54 16° NE 21:17:54 16° NE 21:18:52 10° NNE visible
06 Apr 5.7 22:53:02 15° NW 22:53:02 15° NW 22:54:08 10° NNW visible
07 Apr 4.6 21:04:52 18° NE 21:04:52 18° NE 21:06:18 10° NNE visible
07 Apr 5.4 22:39:59 18° NW 22:39:59 18° NW 22:41:51 10° NNW visible
